Date String (YYYY-MM-DD hh:mm:ss) UTC,Instrument flags,Ambient pressure (hPa),Sample flow (lpm),Bypass flow (lpm),Sample temperature (°C),Ambient temperature (°C),ASC tube jacket temperature (°C),LED temperature (°C),Box temperature (°C),Sample RH (%),Span deviation,Mass concentration (μg/m³),Mass concentration (μg/m³),Mass concentration (μg/m³)
DateTimeUTC,F1_M11,P_M11,Q1_M11,Q2_M11,T1_M11,T2_M11,T3_M11,T4_M11,T5_M11,U1_M11,ZSPAN_M11,X0_M11,X2_M11,X1_M11
2022-02-21 08:00:00,,0813.1,5.00,0.00,24.0,23.2,00.0,33.0,25.7,06.0,0000.0,0003.31,0001.10,0000.80
2022-02-21 08:01:00,,0813.2,5.00,0.00,24.0,23.2,00.0,33.0,25.7,05.8,0000.0,0003.26,0001.10,0000.79
2022-02-21 08:02:00,,0813.1,5.00,0.00,24.0,23.2,00.0,33.0,25.7,05.8,0000.0,0003.70,0001.08,0000.78
2022-02-21 08:03:00,,0813.3,5.01,0.00,24.0,23.2,00.0,33.0,25.7,06.0,0000.0,0003.45,0001.05,0000.78
2022-02-21 08:04:00,,0813.0,4.99,0.00,24.0,23.2,00.0,33.0,25.7,05.9,0000.0,0003.28,0001.05,0000.77
2022-02-21 08:05:00,,0813.0,4.99,0.00,24.0,23.2,00.0,33.0,25.7,05.8,0000.0,0003.20,0001.01,0000.77
2022-02-21 08:06:00,,0813.0,4.99,0.00,24.0,23.2,00.0,33.0,25.7,05.7,0000.0,0003.13,0000.98,0000.75
2022-02-21 08:07:00,,0813.0,5.00,0.00,24.0,23.2,00.0,33.0,25.7,05.7,0000.0,0002.23,0000.93,0000.74
2022-02-21 08:08:00,,0813.1,5.02,0.00,24.0,23.2,00.0,33.0,25.7,05.7,0000.0,0002.16,0000.93,0000.73
2022-02-21 08:09:00,,0812.9,4.99,0.00,24.0,23.2,00.0,33.0,25.7,05.7,0000.0,0002.27,0000.93,0000.72
2022-02-21 08:10:00,,0813.0,5.00,0.00,24.0,23.2,00.0,33.0,25.7,05.6,0000.0,0002.21,0000.90,0000.71
2022-02-21 08:11:00,,0812.9,5.01,0.00,24.0,23.2,00.0,33.0,25.7,05.6,0000.0,0002.32,0000.88,0000.71
2022-02-21 08:12:00,,0812.9,4.98,0.00,24.0,23.2,00.0,33.0,25.7,06.0,0000.0,0002.81,0000.89,0000.69
2022-02-21 08:13:00,,0813.0,4.99,0.00,24.0,23.2,00.0,33.0,25.6,06.3,0000.0,0002.34,0000.88,0000.69
2022-02-21 08:14:00,,0813.0,5.02,0.00,24.0,23.2,00.0,33.0,25.7,06.0,0000.0,0002.05,0000.88,0000.68
2022-02-21 08:15:00,,0813.0,4.99,0.00,24.0,23.2,00.0,33.0,25.6,06.0,0000.0,0002.55,0000.91,0000.67
2022-02-21 08:16:00,,0813.0,5.00,0.00,24.0,23.2,00.0,33.0,25.6,05.8,0000.0,0002.77,0000.96,0000.67
2022-02-21 08:17:00,,0813.0,5.01,0.00,23.9,23.1,00.0,33.0,25.6,05.9,0000.0,0002.85,0000.98,0000.67
2022-02-21 08:18:00,,0813.0,5.00,0.00,23.9,23.1,00.0,33.0,25.6,05.8,0000.0,0002.86,0000.99,0000.68
2022-02-21 08:19:00,,0813.0,5.01,0.00,23.9,23.1,00.0,33.0,25.6,05.8,0000.0,0002.93,0001.01,0000.68
2022-02-21 08:20:00,,0813.0,4.99,0.00,23.9,23.1,00.0,33.0,25.6,06.0,0000.0,0002.78,0000.99,0000.68
2022-02-21 08:21:00,,0813.0,5.00,0.00,23.9,23.1,00.0,33.0,25.6,06.0,0000.0,0002.76,0000.99,0000.68
2022-02-21 08:22:00,,0813.1,5.01,0.00,23.9,23.1,00.0,33.0,25.5,06.0,0000.0,0002.61,0000.99,0000.68
2022-02-21 08:23:00,,0813.2,4.99,0.00,23.9,23.1,00.0,33.0,25.6,06.0,0000.0,0002.23,0001.02,0000.69
2022-02-21 08:24:00,,0813.0,4.99,0.00,23.9,23.1,00.0,33.0,25.5,05.9,0000.0,0002.22,0001.02,0000.70
2022-02-21 08:25:00,,0813.1,5.01,0.00,23.9,23.1,00.0,33.0,25.5,05.9,0000.0,0002.28,0001.04,0000.70
2022-02-21 08:26:00,,0813.0,5.00,0.00,23.9,23.0,00.0,33.0,25.5,05.9,0000.0,0001.88,0001.03,0000.72
2022-02-21 08:27:00,,0813.0,4.99,0.00,23.9,23.0,00.0,32.9,25.5,05.9,0000.0,0001.74,0001.02,0000.74
2022-02-21 08:28:00,,0813.0,5.01,0.00,23.9,23.0,00.0,32.9,25.5,05.8,0000.0,0001.74,0001.03,0000.74
2022-02-21 08:29:00,,0812.9,4.99,0.00,23.8,23.0,00.0,32.9,25.5,06.0,0000.0,0001.76,0001.04,0000.74
2022-02-21 08:30:00,,0813.1,5.01,0.00,23.8,23.0,00.0,32.9,25.5,06.0,0000.0,0001.71,0001.01,0000.73
2022-02-21 08:31:00,,0812.9,5.00,0.00,23.8,23.0,00.0,32.9,25.5,05.9,0000.0,0001.68,0001.00,0000.73
2022-02-21 08:32:00,,0813.0,4.99,0.00,23.8,23.0,00.0,32.9,25.5,06.1,0000.0,0002.00,0001.03,0000.73
2022-02-21 08:33:00,,0812.9,5.01,0.00,23.8,22.9,00.0,32.9,25.5,06.2,0000.0,0002.01,0001.00,0000.73
2022-02-21 08:34:00,,0812.9,4.99,0.00,23.8,22.9,00.0,32.9,25.5,06.4,0000.0,0001.85,0000.94,0000.72
2022-02-21 08:35:00,,0812.9,4.99,0.00,23.8,22.9,00.0,32.9,25.5,06.4,0000.0,0001.85,0000.94,0000.72
2022-02-21 08:36:00,,0813.1,5.01,0.00,23.8,22.9,00.0,32.9,25.5,06.3,0000.0,0001.81,0000.95,0000.72
2022-02-21 08:37:00,,0812.9,5.00,0.00,23.8,22.9,00.0,32.9,25.5,06.2,0000.0,0001.88,0000.94,0000.71
2022-02-21 08:38:00,,0812.8,4.99,0.00,23.8,22.9,00.0,32.8,25.5,06.0,0000.0,0001.83,0000.90,0000.70
2022-02-21 08:39:00,,0812.8,4.99,0.00,23.8,22.9,00.0,32.8,25.5,05.7,0000.0,0001.97,0000.92,0000.70
2022-02-21 08:40:00,,0812.8,5.01,0.00,23.8,22.9,00.0,32.8,25.5,05.7,0000.0,0002.02,0000.92,0000.68
2022-02-21 08:41:00,,0812.8,4.99,0.00,23.8,22.9,00.0,32.8,25.4,06.1,0000.0,0002.00,0000.91,0000.68
2022-02-21 08:42:00,,0812.8,4.99,0.00,23.8,22.9,00.0,32.8,25.4,06.2,0000.0,0002.11,0000.92,0000.68
2022-02-21 08:43:00,,0812.9,5.02,0.00,23.7,22.9,00.0,32.8,25.4,06.3,0000.0,0001.96,0000.92,0000.69
2022-02-21 08:44:00,,0812.8,4.99,0.00,23.7,22.9,00.0,32.8,25.4,06.2,0000.0,0001.77,0000.91,0000.68
2022-02-21 08:45:00,,0812.8,5.01,0.00,23.7,22.8,00.0,32.8,25.4,06.2,0000.0,0001.79,0000.92,0000.68
2022-02-21 08:46:00,,0812.8,5.00,0.00,23.7,22.8,00.0,32.8,25.4,06.0,0000.0,0001.77,0000.91,0000.68
2022-02-21 08:47:00,,0812.8,4.99,0.00,23.7,22.8,00.0,32.8,25.5,05.9,0000.0,0001.78,0000.89,0000.67
2022-02-21 08:48:00,,0812.8,5.00,0.00,23.7,22.8,00.0,32.8,25.4,05.7,0000.0,0001.58,0000.85,0000.66
2022-02-21 08:49:00,,0812.8,5.00,0.00,23.7,22.8,00.0,32.8,25.3,05.5,0000.0,0001.55,0000.85,0000.66
2022-02-21 08:50:00,,0812.8,5.02,0.00,23.7,22.8,00.0,32.8,25.4,05.5,0000.0,0001.38,0000.82,0000.64
2022-02-21 08:51:00,,0812.7,4.99,0.00,23.7,22.8,00.0,32.8,25.4,05.5,0000.0,0001.29,0000.81,0000.65
2022-02-21 08:52:00,,0812.7,4.99,0.00,23.6,22.8,00.0,32.8,25.3,05.5,0000.0,0001.24,0000.80,0000.65
2022-02-21 08:53:00,,0812.6,5.02,0.00,23.6,22.7,00.0,32.7,25.3,05.5,0000.0,0001.13,0000.78,0000.64
2022-02-21 08:54:00,,0812.6,5.00,0.00,23.6,22.7,00.0,32.7,25.2,05.5,0000.0,0001.09,0000.76,0000.63
2022-02-21 08:55:00,,0812.7,5.00,0.00,23.5,22.6,00.0,32.7,25.2,05.7,0000.0,0001.09,0000.75,0000.62
2022-02-21 08:56:00,,0812.6,4.99,0.00,23.5,22.6,00.0,32.7,25.1,05.8,0000.0,0001.06,0000.74,0000.61
2022-02-21 08:57:00,,0812.6,5.01,0.00,23.5,22.6,00.0,32.7,25.2,05.8,0000.0,0001.07,0000.74,0000.60
2022-02-21 08:58:00,,0812.6,5.00,0.00,23.5,22.6,00.0,32.6,25.2,05.8,0000.0,0002.04,0000.74,0000.60
2022-02-21 08:59:00,,0812.7,4.99,0.00,23.4,22.5,00.0,32.6,25.1,05.9,0000.0,0002.27,0000.77,0000.60
